Wetbulb
47.20 43.04 40.35 43.13 44.71 45.02 44.42 41.92 40.76 42.66 43.37 42.96 43.04 43.56 45.35 47.46 47.36 47.75 49.17 49.83 49.89 50.11 50.98 50.36 51.13 52.14 53.18 56.97 62.96 64.64 65.29 66.72 66.42 64.35 64.08 64.27 63.85 64.83 65.21 65.63 65.49 65.09 64.69 65.54
42.85 39.93 44.64 45.65 44.27 42.88 43.05 40.94 40.71 41.40 42.64 42.71 42.90 42.57 45.39 46.76 47.03 47.26 47.46 47.65 48.17 48.74 49.68 49.89 50.65 50.90 51.04 52.10 55.47 61.16 63.87 65.36 66.61 64.84 64.57 64.54 64.19 64.54 64.86 65.11 64.92 64.37 64.22 64.71
40.79 42.48 43.94 41.91 40.81 40.53 41.49 40.93 40.74 40.40 41.31 42.10 40.93 40.57 43.40 43.95 44.54 45.22 45.55 46.19 47.29 48.38 48.64 49.84 50.75 52.22 52.71 51.41 52.03 54.19 58.72 62.88 65.14 65.89 64.34 64.04 63.25 63.60 63.85 63.87 63.68 63.86 63.75 64.05
41.92 41.49 40.95 41.08 40.20 42.01 37.76 41.91 41.85 40.21 39.98 36.55 41.07 35.75 41.63 42.99 43.10 44.18 45.83 47.56 48.52 48.86 49.54 50.24 50.88 51.39 52.20 53.44 52.97 50.98 55.15 58.66 62.12 64.57 64.51 62.92 61.87 60.70 62.01 62.98 64.22 63.88 63.67 63.48
38.91 38.98 39.44 39.56 40.73 42.66 39.90 42.52 41.69 41.55 39.75 38.70 38.28 36.01 40.28 41.21 40.99 43.64 46.12 47.46 48.42 49.41 49.85 49.47 49.85 50.51 51.62 53.68 55.76 54.08 52.16 55.66 58.84 61.17 62.70 62.27 60.85 61.26 61.58 62.32 62.29 62.86 63.21 62.86
40.27 42.13 42.68 42.33 41.43 42.59 42.10 41.03 40.69 40.84 38.90 32.59 37.71 37.01 38.57 39.53 41.51 43.88 45.69 46.85 47.45 48.05 48.53 48.81 49.79 50.87 51.21 52.63 53.71 55.71 57.18 56.18 56.14 58.67 60.65 61.08 59.65 59.45 59.49 59.77 60.93 62.09 61.55 61.82
38.87 38.69 41.36 42.23 38.71 41.50 41.76 38.74 32.16 30.53 30.87 30.36 34.60 34.66 38.50 40.41 43.07 45.42 45.06 46.14 47.29 48.41 49.01 49.11 49.05 49.17 49.89 50.33 50.96 51.87 53.33 54.98 57.80 57.24 57.87 58.27 58.82 59.12 58.83 58.45 58.57 58.40 59.05 59.43
34.08 31.89 38.99 42.02 41.16 38.23 38.98 39.07 33.97 27.27 28.00 31.71 31.25 31.01 37.83 41.87 43.73 47.05 46.90 46.66 47.38 47.80 48.40 48.49 48.72 48.78 48.79 49.43 50.12 50.40 50.63 50.36 51.70 52.28 52.97 54.59 56.71 56.58 55.36 54.18 54.21 54.45 54.06 54.12
35.11 34.55 39.64 41.26 41.84 42.08 38.13 35.48 40.02 31.54 27.17 31.69 34.59 37.70 39.92 41.02 42.36 44.69 44.90 45.21 46.16 47.29 47.81 47.67 48.27 48.41 47.96 47.81 48.30 48.83 48.57 48.91 49.46 49.93 50.13 50.00 50.52 50.58 50.26 50.51 50.73 50.27 50.37 49.46
39.46 31.85 37.38 37.97 41.20 40.60 39.86 41.52 33.56 35.30 27.59 27.08 32.20 34.49 36.88 36.63 39.32 42.25 42.96 44.42 45.95 47.23 47.13 47.32 47.38 47.05 47.05 47.08 47.10 47.33 47.24 46.65 47.28 47.56 47.47 47.10 47.10 47.34 47.52 47.07 46.10 46.30 46.74 46.43
40.81 38.63 33.20 37.59 36.44 36.82 36.17 36.04 37.04 37.54 36.00 32.99 29.90 33.51 41.25 40.67 41.54 42.36 43.92 45.72 45.87 46.03 46.50 46.53 46.49 46.35 46.48 46.86 46.64 46.12 45.95 45.61 45.40 45.61 45.63 45.21 44.74 45.00 44.91 44.26 43.99 43.71 44.30 43.89
40.00 38.23 31.89 34.28 37.64 38.98 40.12 38.72 38.02 33.04 30.02 33.06 32.23 35.47 40.58 43.61 44.04 45.26 45.15 45.78 46.42 46.82 46.30 45.78 45.47 45.79 45.83 45.57 45.43 44.79 44.31 43.56 43.95 44.47 44.15 43.49 43.42 43.33 42.58 41.94 41.88 42.25 41.65 42.73
39.16 35.64 29.77 30.44 35.71 36.88 35.93 38.50 40.06 39.82 37.61 32.59 31.61 34.84 39.96 42.30 44.38 45.61 45.29 45.31 45.48 45.47 45.49 45.22 45.13 44.77 44.43 43.79 43.17 42.57 42.36 41.69 42.27 42.82 42.51 41.63 41.12 41.11 40.64 40.57 40.73 40.93 40.78 41.23
41.54 37.11 33.94 30.85 34.50 37.60 33.69 36.51 37.35 38.00 32.71 33.52 34.25 37.23 37.41 41.39 42.97 44.49 44.88 44.54 44.74 44.93 44.80 44.92 44.75 44.37 43.90 43.23 42.63 41.79 41.03 41.22 41.37 41.37 40.66 39.65 39.11 39.13 39.08 39.21 38.97 38.74 38.90 38.91
39.53 33.14 35.96 37.64 39.15 38.62 37.83 36.67 37.00 35.50 37.08 34.02 36.96 36.91 40.56 41.26 43.00 44.56 45.48 44.58 44.26 44.03 44.03 43.97 43.53 43.04 42.71 42.09 41.33 41.34 40.50 39.61 40.45 39.93 39.27 38.24 38.58 37.81 37.52 36.91 36.68 36.58 36.46 36.59
39.14 34.75 36.33 33.45 37.10 35.52 34.34 36.86 37.19 36.39 37.10 37.47 38.15 38.04 43.99 44.39 45.19 44.52 44.05 44.17 43.29 43.42 43.82 44.06 43.28 42.26 41.48 40.93 40.16 39.50 39.05 38.23 38.90 37.77 36.26 35.94 35.87 35.12 35.38 34.76 34.20 34.18 34.48 35.00
37.09 35.22 33.46 31.74 33.78 34.20 30.40 33.61 36.88 37.32 39.00 39.11 35.27 39.89 42.59 42.15 42.98 43.71 43.46 44.04 43.32 43.93 44.03 43.04 41.82 41.03 40.56 39.96 39.59 38.80 38.18 37.86 36.78 36.06 34.54 33.59 33.48 33.51 33.50 32.97 32.85 32.87 32.99 33.39
34.58 34.49 34.47 31.13 32.55 24.09 35.07 37.81 40.12 38.63 39.62 40.83 40.88 42.01 42.53 43.07 44.43 45.59 46.24 45.01 44.37 44.44 43.57 42.12 41.89 41.08 40.16 39.33 38.68 37.40 37.01 36.14 35.36 34.40 33.66 32.61 32.23 31.68 31.53 31.20 31.06 31.80 32.05 31.38
39.20 36.44 32.04 29.76 28.92 33.06 36.31 32.77 35.42 35.79 36.39 41.37 40.76 42.04 42.62 43.92 44.13 43.49 46.25 46.23 45.06 44.06 42.69 41.92 41.84 40.86 39.13 37.95 36.91 35.80 34.76 34.85 33.96 32.73 32.16 31.46 31.16 29.90 29.89 28.51 29.96 30.42 30.46 30.50
35.28 37.58 33.92 30.80 28.73 25.42 34.60 36.15 39.12 40.44 30.86 41.53 41.37 40.97 39.67 40.33 35.50 40.04 43.72 43.56 41.47 41.63 41.42 40.48 39.72 38.63 36.78 35.93 35.21 33.66 32.71 32.98 31.69 30.22 29.80 29.94 29.87 28.51 28.44 29.84 29.63 31.08 31.17 30.56
31.07 31.31 30.27 29.88 30.20 33.45 33.77 32.50 36.43 30.76 34.32 34.49 40.67 41.44 39.23 37.92 41.02 43.81 41.28 40.18 40.92 40.43 39.59 39.17 37.82 35.96 35.43 32.85 32.34 31.83 31.77 30.40 29.00 28.41 28.29 27.96 28.04 26.69 27.94 28.92 30.26 30.21 30.41 30.36
29.68 29.92 30.32 31.24 29.12 27.29 33.30 31.75 33.61 36.82 34.19 35.51 38.82 40.55 39.49 37.89 38.20 38.68 39.55 38.48 38.31 37.91 37.15 36.42 34.27 32.39 31.78 31.36 31.60 30.69 30.42 28.55 27.31 26.14 25.55 25.12 24.41 25.78 27.18 26.22 27.36 28.44 29.76 29.99
30.24 34.37 32.07 32.97 34.17 34.47 34.79 35.44 36.83 37.48 36.09 35.27 38.40 38.42 38.18 36.71 36.35 36.67 36.81 37.27 37.43 36.94 34.65 34.56 33.11 30.40 30.11 29.17 29.48 29.43 27.86 26.11 24.40 21.25 19.99 22.07 23.63 24.18 25.49 25.46 25.68 27.17 28.60 28.60
32.03 32.69 33.00 33.54 35.15 34.45 33.98 34.88 35.09 36.35 36.75 36.58 36.93 36.43 37.10 36.26 35.20 34.23 34.39 34.18 33.62 32.45 31.24 30.15 30.00 28.56 27.10 27.20 26.60 26.29 24.89 22.31 16.86 18.94 20.85 21.88 22.25 23.70 24.44 25.91 25.95 26.16 26.69 27.27
32.80 32.48 32.41 31.66 30.09 32.56 33.70 34.81 35.76 34.62 34.61 34.37 34.82 35.00 36.40 34.78 33.32 33.39 32.47 31.65 31.23 29.74 28.51 29.39 29.07 27.96 26.38 25.91 24.91 22.93 20.24 16.92 17.83 18.12 19.55 21.23 22.64 22.60 22.03 23.29 24.09 24.27 25.41 26.58
30.78 31.99 31.67 32.82 34.56 35.58 34.81 35.12 35.54 34.52 33.68 33.87 32.71 31.96 32.76 33.82 32.47 32.14 31.01 30.79 29.49 27.94 26.95 25.98 24.85 24.00 22.17 20.26 19.02 18.23 13.76 12.63 11.78 15.55 18.30 19.55 17.87 19.43 20.05 20.60 21.39 25.36 26.54 27.70
MSLP
1011.53 1011.42 1010.87 1010.84 1010.52 1010.05 1010.02 1010.89 1011.65 1012.52 1013.81 1013.88 1013.34 1012.75 1012.36 1012.50 1013.12 1013.14 1013.11 1013.20 1013.60 1013.95 1014.49 1015.26 1015.61 1015.91 1016.09 1016.04 1016.08 1016.46 1016.84 1017.44 1018.31 1019.25 1019.83 1020.28 1020.58 1020.99 1021.27 1021.39 1021.55 1021.78 1022.04 1022.03
1011.98 1010.84 1010.91 1011.06 1011.01 1010.89 1010.67 1011.33 1011.84 1013.54 1014.07 1014.20 1013.53 1012.71 1012.35 1012.57 1013.12 1013.44 1013.76 1014.00 1014.26 1014.53 1015.06 1015.71 1015.97 1016.29 1016.48 1016.35 1016.33 1016.45 1016.66 1017.04 1017.62 1018.68 1019.43 1019.89 1020.23 1020.57 1020.90 1021.11 1021.37 1021.64 1021.82 1021.88
1011.15 1011.07 1011.42 1011.56 1011.93 1011.54 1011.56 1011.42 1011.78 1012.61 1014.00 1014.31 1013.79 1012.38 1011.83 1012.94 1013.59 1014.19 1014.43 1014.81 1015.05 1015.24 1015.50 1016.02 1016.37 1016.58 1016.84 1016.85 1016.68 1016.71 1016.80 1016.94 1017.33 1018.14 1019.27 1019.79 1020.25 1020.39 1020.60 1020.91 1021.23 1021.40 1021.67 1021.81
1011.67 1012.19 1011.91 1012.15 1011.87 1011.84 1012.25 1012.46 1012.43 1013.06 1013.60 1013.61 1013.67 1011.98 1011.35 1012.01 1013.24 1014.04 1014.51 1014.81 1015.16 1015.75 1016.17 1016.49 1016.73 1017.06 1017.36 1017.46 1017.32 1017.11 1017.04 1017.17 1017.27 1017.59 1018.13 1019.11 1019.71 1020.03 1020.20 1020.47 1020.74 1020.99 1021.28 1021.47
1011.85 1012.21 1012.38 1012.37 1011.92 1012.45 1012.95 1013.20 1013.15 1013.40 1013.69 1014.14 1013.75 1013.48 1011.32 1012.29 1012.96 1013.84 1014.51 1015.15 1015.72 1016.11 1016.53 1016.98 1017.31 1017.54 1017.94 1017.88 1017.59 1017.34 1017.53 1017.54 1017.64 1017.93 1018.25 1018.74 1019.61 1019.90 1020.05 1020.28 1020.61 1020.87 1020.99 1021.07
1012.47 1012.98 1012.60 1012.58 1013.03 1013.04 1013.67 1013.84 1014.21 1014.27 1014.44 1014.32 1013.27 1013.56 1011.48 1011.87 1012.25 1013.55 1014.84 1015.23 1016.34 1016.44 1017.08 1017.48 1017.80 1017.89 1018.38 1018.45 1018.36 1018.06 1017.96 1018.04 1018.27 1018.38 1018.69 1018.79 1019.47 1019.95 1020.26 1020.38 1020.55 1020.75 1021.00 1021.11
1012.31 1013.03 1013.45 1013.37 1013.68 1014.06 1013.39 1013.43 1014.10 1014.71 1015.10 1014.43 1014.44 1014.31 1011.98 1012.37 1012.88 1013.58 1014.64 1015.49 1016.43 1016.77 1017.33 1017.86 1018.07 1018.32 1018.75 1019.08 1018.95 1018.89 1018.94 1018.88 1019.26 1019.51 1019.69 1019.96 1020.23 1020.48 1020.71 1020.96 1021.08 1021.15 1021.15 1021.18
1011.34 1013.06 1013.17 1013.14 1012.68 1012.82 1013.07 1012.87 1012.87 1013.94 1014.94 1014.79 1015.63 1013.88 1012.41 1012.88 1013.71 1013.96 1014.95 1015.92 1016.52 1016.99 1017.85 1018.29 1018.68 1018.98 1019.22 1019.61 1019.58 1019.55 1019.61 1019.49 1019.82 1020.03 1020.34 1020.60 1020.75 1021.01 1021.33 1021.54 1021.59 1021.57 1021.73 1021.84
1010.24 1011.94 1013.10 1013.31 1013.21 1012.84 1013.50 1013.19 1013.30 1014.35 1015.82 1015.07 1014.00 1013.01 1013.26 1013.67 1014.10 1014.38 1015.26 1016.29 1016.77 1017.22 1018.04 1018.85 1019.20 1019.39 1019.70 1020.03 1020.22 1020.27 1020.44 1020.41 1020.71 1020.88 1021.04 1021.38 1021.57 1021.80 1022.05 1022.12 1022.28 1022.39 1022.31 1022.34
1009.74 1011.72 1013.73 1014.11 1013.74 1013.60 1012.90 1012.72 1013.58 1013.58 1014.33 1013.97 1013.09 1012.48 1011.73 1013.05 1013.50 1014.31 1015.07 1015.93 1016.74 1017.50 1018.26 1018.99 1019.50 1020.00 1020.42 1020.74 1020.71 1020.97 1021.20 1021.23 1021.55 1021.69 1021.83 1022.13 1022.43 1022.55 1022.87 1023.03 1023.05 1023.06 1023.06 1023.02
1010.07 1010.93 1014.20 1014.19 1013.42 1012.65 1013.42 1012.75 1012.59 1012.39 1012.92 1012.73 1012.39 1011.07 1010.30 1010.79 1011.97 1013.08 1014.32 1015.38 1016.48 1017.36 1018.29 1018.96 1019.79 1020.40 1020.74 1021.06 1021.26 1021.51 1021.79 1021.93 1022.32 1022.55 1022.62 1022.77 1023.11 1023.14 1023.31 1023.49 1023.61 1023.78 1023.54 1023.50
1010.72 1011.56 1013.10 1013.11 1013.55 1013.39 1012.55 1011.94 1012.08 1012.02 1012.22 1012.51 1012.25 1010.71 1010.77 1010.48 1011.53 1012.90 1013.97 1015.15 1016.55 1017.52 1018.22 1019.10 1020.01 1020.54 1020.94 1021.39 1021.53 1021.93 1022.07 1022.47 1022.91 1023.18 1023.19 1023.38 1023.76 1023.92 1023.85 1024.06 1024.25 1024.23 1024.14 1024.00
1010.37 1011.59 1012.93 1013.43 1013.62 1013.49 1012.53 1011.81 1011.26 1011.41 1012.14 1011.95 1012.11 1010.74 1011.15 1010.89 1011.42 1012.68 1013.73 1015.19 1016.45 1017.55 1018.42 1019.19 1019.75 1020.46 1021.11 1021.65 1022.04 1022.37 1022.64 1023.20 1023.59 1023.67 1023.68 1023.93 1024.30 1024.40 1024.47 1024.62 1024.72 1024.53 1024.35 1024.06
1010.31 1010.78 1010.87 1010.95 1010.19 1010.79 1011.86 1011.29 1011.46 1011.26 1011.46 1010.73 1010.52 1009.89 1010.90 1011.03 1011.55 1012.63 1013.84 1015.07 1016.32 1017.43 1018.36 1019.12 1019.67 1020.52 1021.24 1021.68 1022.05 1022.55 1023.08 1023.69 1023.91 1023.98 1024.15 1024.50 1024.85 1024.95 1024.92 1024.88 1025.01 1024.87 1024.69 1024.53
1010.71 1010.59 1011.04 1010.48 1010.41 1010.26 1010.19 1010.81 1011.21 1011.07 1009.78 1009.95 1008.67 1009.06 1009.22 1010.48 1011.24 1011.81 1013.01 1014.88 1015.98 1017.07 1018.16 1018.82 1019.58 1020.44 1021.22 1021.79 1022.39 1022.98 1023.42 1024.04 1024.11 1024.29 1024.60 1024.95 1025.46 1025.62 1025.55 1025.56 1025.60 1025.49 1025.34 1025.01
1011.16 1011.11 1011.17 1011.36 1011.21 1011.33 1010.91 1010.66 1010.42 1010.09 1009.37 1009.35 1008.32 1008.08 1008.28 1009.49 1011.08 1012.22 1013.10 1014.34 1015.42 1016.50 1017.62 1018.55 1019.49 1020.42 1021.29 1022.00 1022.61 1023.21 1023.83 1024.32 1024.55 1024.95 1025.66 1026.06 1026.28 1026.32 1026.28 1026.21 1026.08 1025.75 1025.52 1025.21
1011.44 1011.67 1012.05 1012.34 1012.47 1012.30 1011.65 1009.06 1009.53 1009.29 1008.97 1008.16 1007.77 1006.62 1008.74 1009.71 1010.45 1011.28 1012.54 1013.46 1014.73 1016.05 1017.27 1018.52 1019.60 1020.54 1021.42 1022.21 1022.95 1023.49 1024.10 1024.68 1025.20 1025.89 1026.29 1026.50 1026.64 1026.50 1026.51 1026.43 1026.17 1025.97 1025.67 1025.26
1011.65 1011.93 1012.48 1012.79 1013.19 1012.03 1008.91 1008.84 1008.33 1008.43 1007.91 1007.90 1007.48 1007.59 1008.29 1008.95 1009.94 1010.75 1011.80 1012.95 1014.37 1015.78 1017.19 1018.51 1019.59 1020.65 1021.64 1022.51 1023.26 1023.88 1024.39 1025.20 1025.73 1026.20 1026.49 1026.69 1026.66 1026.75 1026.70 1026.63 1026.36 1026.06 1025.73 1025.40
1011.55 1012.06 1012.93 1012.97 1012.75 1010.68 1008.96 1009.47 1009.17 1008.75 1007.30 1007.46 1006.98 1007.78 1008.61 1009.42 1010.56 1011.43 1012.39 1013.69 1014.72 1016.02 1017.46 1018.55 1019.62 1020.82 1021.87 1022.71 1023.36 1024.22 1025.20 1025.44 1025.85 1026.28 1026.56 1026.72 1026.91 1026.92 1026.83 1026.70 1026.34 1026.09 1025.77 1025.34
1012.33 1012.36 1012.51 1012.79 1012.01 1010.68 1008.45 1009.06 1009.37 1009.42 1007.49 1007.33 1007.68 1008.22 1009.05 1010.11 1010.96 1010.67 1012.42 1013.63 1015.02 1016.38 1017.72 1019.00 1020.26 1021.30 1022.11 1023.15 1024.11 1024.67 1025.24 1025.57 1026.07 1026.43 1026.79 1026.96 1027.04 1026.98 1026.83 1026.58 1026.25 1025.79 1025.45 1024.90
1012.14 1012.15 1011.76 1012.03 1011.64 1010.19 1009.44 1009.77 1009.93 1010.13 1008.46 1007.95 1007.67 1007.96 1009.05 1009.61 1009.66 1010.35 1012.54 1014.15 1015.15 1016.45 1017.95 1019.28 1020.51 1021.67 1022.93 1023.75 1024.39 1024.99 1025.44 1025.93 1026.48 1026.74 1026.89 1027.13 1027.07 1026.93 1026.67 1026.30 1026.01 1025.61 1025.13 1024.58
1010.64 1010.91 1011.04 1011.29 1011.17 1010.27 1009.80 1010.50 1010.22 1009.43 1009.27 1009.30 1009.27 1009.34 1010.09 1010.85 1011.52 1012.20 1013.11 1014.53 1015.87 1016.90 1018.52 1019.63 1021.19 1022.47 1023.41 1024.14 1024.60 1025.09 1025.51 1026.17 1026.54 1026.79 1026.94 1027.06 1026.78 1026.65 1026.59 1026.23 1025.84 1025.37 1024.80 1024.14
1010.48 1009.79 1010.06 1010.23 1009.64 1009.26 1009.59 1009.75 1009.71 1009.78 1010.09 1010.29 1010.27 1010.50 1010.97 1011.78 1012.55 1013.29 1014.33 1015.46 1016.69 1017.98 1019.32 1020.59 1021.65 1022.97 1024.00 1024.48 1024.68 1025.19 1025.89 1026.42 1026.68 1026.95 1027.05 1026.89 1026.78 1026.72 1026.54 1026.15 1025.54 1025.01 1024.37 1023.87
1010.43 1010.47 1010.13 1010.22 1009.26 1009.52 1009.96 1010.29 1010.54 1010.65 1010.68 1010.74 1011.00 1011.24 1011.87 1012.59 1013.61 1014.60 1015.53 1016.74 1018.10 1019.32 1020.42 1021.48 1022.33 1023.26 1024.12 1024.78 1025.27 1025.79 1026.35 1026.79 1027.14 1027.10 1027.04 1026.95 1026.81 1026.49 1026.19 1025.74 1025.25 1024.75 1024.22 1023.66
1010.21 1010.38 1010.15 1010.02 1010.03 1010.21 1010.10 1010.27 1010.65 1011.19 1011.41 1011.70 1011.85 1012.18 1012.48 1013.24 1014.59 1015.29 1016.58 1017.81 1018.99 1020.13 1021.11 1021.72 1022.48 1023.49 1024.45 1025.16 1025.81 1026.49 1026.90 1027.09 1027.21 1027.26 1027.03 1026.76 1026.51 1026.18 1025.79 1025.33 1024.87 1024.33 1023.87 1023.65
1009.78 1009.44 1009.55 1009.09 1009.15 1009.38 1009.68 1009.77 1010.57 1011.34 1011.95 1012.44 1012.48 1013.03 1013.62 1013.97 1014.87 1016.09 1017.43 1018.48 1019.53 1020.57 1021.43 1022.30 1023.17 1023.98 1024.95 1025.83 1026.37 1026.78 1027.24 1027.41 1027.61 1027.48 1027.16 1026.90 1026.79 1026.24 1025.65 1025.11 1024.14 1023.79 1023.11 1022.75
Wind_Speed
10 11 16 18 15 12 15 14 10 8 3 6 12 12 12 8 6 7 8 7 5 4 2 2 4 5 8 10 13 14 14 14 10 7 7 6 6 6 6 6 8 8 8 10
8 16 14 10 7 6 7 13 11 5 4 4 4 12 11 10 7 4 4 6 5 3 3 1 0 2 5 8 10 12 14 13 11 7 6 4 4 4 6 6 7 7 7 7
13 9 11 7 8 10 9 14 11 3 6 1 2 9 11 5 5 4 3 4 3 2 3 4 4 3 1 1 5 9 11 12 11 11 6 4 1 1 4 4 4 6 8 8
9 5 11 12 15 13 9 1 10 11 9 5 3 5 7 9 8 4 4 6 5 5 5 5 5 5 5 4 1 5 7 9 9 11 10 9 5 6 5 4 5 5 8 9
7 9 14 13 14 10 5 7 7 6 5 3 7 6 4 7 9 8 7 6 6 5 6 7 7 7 7 6 6 6 5 5 6 7 8 6 3 3 3 1 2 3 5 8
5 3 6 6 6 5 15 12 10 5 2 7 11 9 8 8 12 11 8 9 8 9 8 8 7 8 8 7 8 8 9 8 6 5 6 5 5 4 2 2 2 1 3 2
5 5 2 6 10 8 10 15 5 5 6 7 4 5 12 5 4 11 13 12 11 10 9 9 9 9 9 9 9 9 10 12 10 10 8 7 5 5 4 4 3 3 2 2
13 9 13 10 7 10 16 16 6 7 6 5 2 9 5 8 3 11 13 13 11 10 8 8 8 9 9 9 10 11 10 12 11 11 11 8 7 4 5 6 5 5 5 6
14 8 3 5 1 12 8 10 3 7 2 2 7 7 5 7 9 13 14 13 12 11 9 8 8 9 9 9 10 10 11 11 11 11 10 10 9 9 7 8 7 6 7 6
6 5 2 2 2 0 6 11 5 3 6 5 7 6 7 14 17 16 17 16 14 12 10 9 8 8 8 8 9 10 11 12 11 11 10 9 9 10 9 8 9 8 8 9
7 2 3 5 10 14 6 6 6 4 3 4 4 7 2 20 21 21 18 17 16 14 12 10 8 8 8 8 9 9 9 10 10 9 9 9 8 8 8 7 7 7 7 8
2 5 6 9 4 3 6 11 12 6 6 4 3 5 4 4 18 19 18 16 14 13 12 11 10 9 8 8 8 9 9 9 8 7 8 9 8 8 8 8 7 7 7 6
10 4 4 2 2 2 7 12 16 16 3 7 6 7 3 5 15 16 18 16 14 14 14 12 11 10 9 8 8 8 9 8 6 6 8 8 8 7 8 7 7 7 7 8
12 4 14 14 17 8 9 15 15 17 8 12 11 11 5 12 17 17 17 17 17 16 15 13 12 10 9 8 8 9 8 6 5 6 7 7 7 7 7 7 8 8 8 8
8 9 12 20 9 6 12 15 17 20 25 17 23 17 11 18 20 23 20 18 17 16 16 14 12 10 10 9 8 8 8 6 6 7 8 9 7 8 8 7 7 7 6 6
4 4 9 2 5 3 2 9 19 22 25 22 23 16 6 15 16 17 18 18 18 17 16 14 12 11 9 8 8 7 6 6 6 8 7 5 5 5 5 5 5 6 6 6
8 6 4 4 6 4 5 22 17 20 25 21 25 25 8 14 19 21 20 20 18 17 16 14 12 10 8 8 7 7 6 5 6 3 3 3 4 4 5 5 6 6 7 7
5 6 2 5 4 9 8 2 22 23 16 22 22 14 13 18 20 20 18 19 17 17 16 13 11 11 9 9 7 7 5 4 4 3 2 3 4 5 6 6 6 6 7 8
5 7 3 6 9 11 14 5 7 12 21 22 22 16 9 11 9 11 12 13 14 14 13 11 10 11 10 9 7 6 5 4 4 3 3 4 4 5 5 5 6 6 7 8
3 4 8 5 8 14 3 8 4 6 20 13 16 13 11 14 13 11 15 13 15 15 13 12 11 10 9 7 6 6 5 4 4 3 3 4 4 3 5 6 7 6 7 8
5 5 16 9 7 8 5 9 5 10 6 3 11 15 18 17 7 9 17 14 16 15 14 13 11 8 8 6 5 5 4 4 3 2 2 3 3 5 5 7 7 8 8 11
8 8 6 5 8 16 9 4 9 1 2 0 1 6 10 6 10 14 17 18 16 17 14 12 10 8 6 5 5 5 5 3 3 3 3 4 4 5 6 7 8 8 8 9
6 3 5 6 3 3 13 3 3 2 2 3 4 3 10 12 12 14 15 15 13 13 11 8 9 9 6 4 4 5 3 3 3 3 3 4 5 6 6 7 8 7 7 7
2 1 2 2 3 2 2 2 3 1 2 2 3 9 12 14 13 12 12 11 10 9 9 6 9 8 6 4 4 4 3 3 2 3 4 5 5 6 6 5 6 7 7 7
2 8 5 5 2 2 4 7 3 2 3 4 7 6 14 16 13 13 12 10 9 8 6 6 7 7 6 4 4 3 3 3 3 3 4 6 5 6 8 7 7 7 8 9
6 5 7 5 7 3 3 8 7 7 7 7 8 7 6 10 13 13 10 8 9 9 7 6 6 6 5 4 3 3 3 3 2 5 5 5 6 6 6 8 9 12 17 19
Wind_Direction
189 189 205 204 216 230 201 208 196 185 109 209 230 248 249 217 225 239 225 219 223 211 93 260 246 245 240 234 225 222 214 212 203 185 196 200 204 201 209 215 215 212 213 244
173 208 200 215 174 208 198 198 185 108 125 226 190 255 242 234 228 249 267 249 240 231 169 102 84 254 240 236 229 232 225 215 207 176 195 200 187 203 213 215 218 214 216 236
200 189 129 138 175 164 195 207 170 216 142 168 271 257 230 169 189 183 199 231 213 213 169 125 107 96 27 247 236 230 229 224 213 178 179 180 75 94 193 210 211 213 217 225
238 136 168 184 189 194 190 81 141 134 175 217 205 265 190 177 183 189 174 189 163 145 131 114 101 75 71 48 93 216 217 214 213 206 204 170 204 225 234 206 200 198 210 226
168 165 175 189 184 198 153 156 134 141 191 265 182 253 218 165 196 180 165 157 136 121 118 105 93 84 73 63 74 103 150 176 178 211 215 192 196 236 269 30 175 207 207 218
99 344 190 181 99 201 140 121 96 106 181 245 221 226 220 178 211 165 164 145 149 131 119 106 90 86 79 75 72 79 93 105 130 158 190 206 196 220 225 344 312 350 358 5
133 159 119 163 102 141 173 163 149 185 201 236 34 216 251 133 163 179 167 155 146 139 126 113 104 92 82 79 78 77 83 83 90 90 80 62 61 55 49 35 26 353 351 347
182 196 182 177 214 177 193 192 168 180 196 168 110 226 225 112 183 153 151 149 144 134 129 119 105 96 87 80 79 81 81 84 83 84 83 81 83 74 62 45 27 29 12 8
194 180 69 177 145 152 172 207 66 106 69 185 191 236 183 161 175 160 156 159 158 144 137 127 113 102 97 86 76 80 83 78 74 77 79 71 67 63 60 51 40 26 25 8
209 121 238 107 156 277 218 145 164 222 166 219 194 245 232 189 183 177 174 175 163 150 144 140 125 113 100 93 92 85 80 78 73 73 70 68 62 58 52 46 41 32 23 14
168 120 130 164 210 177 157 191 217 233 221 218 202 239 215 189 184 182 177 176 167 164 158 148 134 122 114 108 97 92 83 79 73 68 71 72 65 65 63 54 43 26 21 14
122 98 155 189 65 26 269 223 196 201 206 264 33 261 342 197 181 179 174 166 168 165 157 150 147 142 133 120 109 97 88 83 78 78 76 70 63 57 55 46 31 21 15 8
174 154 115 101 229 155 216 210 221 227 61 192 195 245 341 214 168 176 171 167 163 165 162 160 156 153 142 130 113 98 86 80 78 77 75 68 57 52 48 36 21 13 6 4
161 148 199 219 224 146 202 210 209 214 211 216 224 228 161 174 172 174 176 175 172 176 171 168 158 153 139 128 120 112 102 91 87 79 76 67 49 37 31 23 11 5 357 353
183 202 204 233 240 208 205 203 204 213 221 214 233 229 211 190 185 189 181 173 172 175 177 171 161 153 147 135 125 114 98 86 68 65 54 42 25 19 12 6 356 349 342 339
191 195 218 222 238 242 244 220 203 213 226 233 248 247 245 178 194 180 177 176 179 179 177 170 160 151 143 140 120 111 97 75 54 53 42 24 7 355 355 341 330 324 320 321
167 146 125 198 133 124 272 223 215 218 225 221 235 236 148 181 191 186 183 188 182 177 172 166 163 154 141 135 131 121 108 93 72 81 72 20 354 348 346 331 330 326 326 324
128 112 104 124 143 216 245 14 219 218 226 225 244 242 186 185 196 195 194 183 176 171 167 159 155 144 136 130 123 118 94 107 129 101 69 22 359 349 339 335 327 328 331 328
170 164 155 192 209 287 273 189 160 182 239 228 230 230 184 184 172 203 191 181 172 160 153 147 143 141 138 139 123 117 149 142 117 86 46 14 355 334 328 316 317 314 311 307
71 253 217 160 211 218 0 158 163 121 267 213 212 210 159 143 190 190 173 161 139 139 137 136 130 129 125 119 138 146 139 133 87 42 4 346 334 303 304 302 303 303 291 290
163 158 204 186 219 276 145 150 175 171 276 299 201 199 171 188 209 147 143 143 141 136 132 129 131 127 131 128 142 124 121 93 81 20 347 325 321 310 299 302 299 297 297 298
174 160 173 162 200 251 139 96 188 92 47 56 217 159 183 130 119 140 143 138 136 131 130 126 128 126 120 126 137 121 95 88 58 10 333 319 320 321 311 303 295 292 292 294
203 200 169 211 209 71 186 40 126 87 172 206 172 165 140 135 139 136 132 126 124 126 117 117 128 126 120 102 77 100 95 62 25 349 322 318 318 303 293 299 298 297 293 291
220 202 211 134 177 198 249 48 323 276 284 157 137 135 136 134 134 120 109 110 112 115 122 126 128 127 120 97 92 85 88 65 35 328 325 316 304 307 296 297 298 294 292 292
127 151 169 268 173 319 267 216 172 145 87 108 118 138 144 134 137 132 129 125 126 125 121 124 127 126 123 106 96 82 65 47 347 318 306 305 299 307 304 286 286 283 276 278
182 170 193 233 155 165 201 201 156 163 176 169 145 123 113 144 135 133 131 132 135 138 136 124 113 120 128 131 116 97 70 55 5 311 306 318 305 296 301 299 300 283 284 286